Location: Gibsondale
(40.9931°N, 80.2478°W)
Time: 17:34:55
(UTC+00:00)

Cosmos 2219 - Pass Details

Date: 29 October 2020
Orbit: 832 x 862 km, 71.1° (Epoch: 28 November)

Event Time Altitude Azimuth Distance (km) Brightness Sun altitude
Rises 23:10:18 0° 337° (NNW) 3,445 6.6 -10.1°
Reaches altitude 10° 23:12:46 10° 338° (NNW) 2,506 5.8 -10.5°
Maximum altitude 23:18:33 83° 67° (ENE) 873 3.2 -11.6°
Drops below altitude 10° 23:24:18 10° 155° (SSE) 2,488 5.5 -12.7°
Sets 23:26:44 0° 156° (SSE) 3,419 6.2 -13.2°
